Location: Ebersheim
(48.3033°N, 7.4991°E)
Time: 20:41:08
(UTC+00:00)

STARLINK-32 - Pass Details

Date: 27 February 2020
Orbit: 529 x 530 km, 53.0° (Epoch: 03 April)

Event Time Altitude Azimuth Distance (km) Brightness Sun altitude
Rises 19:19:27 0° 290° (WNW) 2,670 8.6 -22.2°
Reaches altitude 10° 19:21:44 10° 296° (WNW) 1,780 7.3 -22.6°
Enters shadow 19:25:30 47° 4° (N) 710 4.1 -23.2°
